Weather History for Bloomington, IL

Change the Weather History Date:

Thursday, May 2, 2013

  Actual Average Record
Temperature  
Mean Temperature 62 °F -  
Max Temperature 77 °F 67 °F 82 °F (2001)
Min Temperature 46 °F 28 °F 28 °F (1976)
Degree Days  
Heating Degree Days 2    
Growing Degree Days 12 (Base 50)    
Moisture  
Dew Point 55 °F    
Average Humidity 77    
Maximum Humidity 100    
Minimum Humidity 50    
Precipitation  
Precipitation 0.69 in - - ()
Sea Level Pressure  
Sea Level Pressure 30.11 in    
Wind  
Wind Speed 9 mph (NE)    
Max Wind Speed 22 mph    
Max Gust Speed 23 mph    
Visibility 7 miles    
Events Rain , Thunderstorm    
Averages and records for this station are not official NWS values.
T = Trace of Precipitation, MM = Missing Value Source: NWS Daily Summary

Daily Weather History Graph

Daily Weather History Graph

Search for Another Location

Airport:

Trip Planner

Search our weather history database for the weather conditions in past years. The results will help you decide how hot, cold, wet, or windy it might be!

Date:

Astronomy

May. 02, 2013 Rise Set
Actual Time 5:53 AM CDT 7:52 PM CDT
Civil Twilight 5:23 AM CDT 8:22 PM CDT
Nautical Twilight 4:47 AM CDT 8:58 PM CDT
Astronomical Twilight 4:08 AM CDT 9:38 PM CDT
Moon 1:41 AM CDT (5/2) 12:40 PM CDT (5/2)
Length of Visible Light 14h 58m
Length of Day
13h 59m
Waning Gibbous, 47% of the Moon is Illuminated
May 2
Waning Gibbous
May 9
New
May 17
First Quarter
May 24
Full
May 31
Last Quarter

Hourly Weather History & Observations

Time (CDT) Temp. Dew Point Humidity Pressure Visibility Wind Dir Wind Speed Gust Speed Precip Events Conditions
12:56 AM 65.8 °F 55.9 °F 70% 30.11 in 10.0 mi South 3.5 mph - N/A   Mostly Cloudy
1:56 AM 64.9 °F 54.9 °F 70% 30.09 in 10.0 mi South 5.8 mph - N/A   Clear
2:56 AM 63.0 °F 54.0 °F 72% 30.08 in 10.0 mi South 6.9 mph - N/A   Clear
3:56 AM 61.9 °F 54.9 °F 78% 30.09 in 10.0 mi SSE 4.6 mph - N/A   Clear
4:56 AM 61.0 °F 54.0 °F 78% 30.09 in 10.0 mi SE 3.5 mph - N/A   Clear
5:56 AM 61.9 °F 54.9 °F 78% 30.09 in 10.0 mi SSE 4.6 mph - N/A   Mostly Cloudy
6:56 AM 61.9 °F 56.8 °F 84% 30.12 in 10.0 mi ESE 8.1 mph - N/A   Mostly Cloudy
7:56 AM 66.9 °F 57.9 °F 73% 30.12 in 10.0 mi South 3.5 mph - N/A   Mostly Cloudy
8:56 AM 70.9 °F 59.0 °F 66% 30.13 in 10.0 mi Variable 4.6 mph - N/A   Mostly Cloudy
9:56 AM 70.0 °F 59.0 °F 68% 30.14 in 9.0 mi NNE 5.8 mph - N/A   Partly Cloudy
10:56 AM 72.9 °F 59.9 °F 64% 30.12 in 9.0 mi North 10.4 mph - N/A   Clear
11:56 AM 74.8 °F 59.0 °F 58% 30.12 in 10.0 mi NNE 10.4 mph - N/A   Partly Cloudy
12:56 PM 72.9 °F 55.9 °F 55% 30.11 in 10.0 mi North 5.8 mph - N/A   Scattered Clouds
1:56 PM 74.8 °F 56.8 °F 53% 30.09 in 10.0 mi North 10.4 mph - 0.00 in   Clear
2:56 PM 77.0 °F 56.8 °F 50% 30.07 in 10.0 mi ENE 12.7 mph - N/A   Clear
3:40 PM 71.6 °F 55.4 °F 57% 30.11 in 2.0 mi East 9.2 mph - 0.00 in Rain , Thunderstorm Light Thunderstorms and Rain
3:44 PM 69.8 °F 57.2 °F 64% 30.11 in 1.0 mi SSW 10.4 mph - 0.21 in Rain , Thunderstorm Light Thunderstorms and Rain
3:46 PM 68.0 °F 57.2 °F 68% 30.10 in 0.2 mi NNW 10.4 mph - 0.36 in Rain , Thunderstorm Light Thunderstorms and Rain
3:56 PM 63.9 °F 59.0 °F 84% 30.09 in 5.0 mi ENE 12.7 mph - 0.45 in Rain , Thunderstorm Light Thunderstorms and Rain
4:56 PM 63.9 °F 59.9 °F 87% 30.07 in 5.0 mi NNW 16.1 mph - 0.03 in Rain , Thunderstorm Light Thunderstorms and Rain
5:56 PM 63.0 °F 57.9 °F 84% 30.07 in 7.0 mi NNW 16.1 mph - 0.00 in   Scattered Clouds
6:56 PM 61.9 °F 54.0 °F 75% 30.08 in 10.0 mi NNE 17.3 mph 23.0 mph N/A   Scattered Clouds
7:56 PM 57.9 °F 52.0 °F 81% 30.09 in 9.0 mi North 17.3 mph 23.0 mph 0.00 in Rain , Thunderstorm Light Thunderstorms and Rain
8:19 PM 55.4 °F 51.8 °F 88% 30.16 in 4.0 mi NE 6.9 mph - 0.01 in Rain , Thunderstorm Light Thunderstorms and Rain
8:29 PM 55.4 °F 51.8 °F 88% 30.13 in 1.8 mi North 15.0 mph - 0.07 in Rain , Thunderstorm Heavy Thunderstorms and Rain
8:44 PM 53.6 °F 51.8 °F 94% 30.14 in 2.0 mi NNE 12.7 mph - 0.11 in Rain , Thunderstorm Heavy Thunderstorms and Rain
8:56 PM 54.0 °F 52.0 °F 93% 30.14 in 3.0 mi NE 15.0 mph - 0.13 in Rain , Thunderstorm Rain
9:28 PM 53.6 °F 51.8 °F 94% 30.14 in 4.0 mi NE 15.0 mph - 0.02 in Rain , Thunderstorm Light Thunderstorms and Rain
9:56 PM 50.9 °F 48.9 °F 93% 30.10 in 3.0 mi NE 21.9 mph - 0.08 in Rain Rain
9:59 PM 50.0 °F 48.2 °F 94% 30.11 in 3.0 mi NE 20.7 mph - 0.00 in Rain Rain
10:44 PM 48.2 °F 48.2 °F 100% 30.11 in 6.0 mi NE 12.7 mph - 0.00 in Rain Light Rain
10:56 PM 48.9 °F 46.9 °F 93% 30.09 in 6.0 mi NNE 17.3 mph - 0.00 in Rain Light Rain
11:56 PM 46.9 °F 46.9 °F 100% 30.09 in 5.0 mi NE 12.7 mph - 0.00 in Rain Light Rain